Theta_e
317 317 317 317 317 317 317 318 318 318 319 319 320 320 320 321 321 321 321 321 321 321 321 321 321 321 322 322 322 322 321 322 325 325 325 331 337 357 358 362 354 357 367 352 348 341 339 342 343 344 339 337 335 333 337 338 337 335 326 320 316 319 318 318 319 320 320 318 319 321 323 322 321 325 328 333 331 331 333 333 336 338 339 343 345 348 349 349
317 317 317 317 317 317 317 317 318 318 319 319 319 319 320 320 321 321 321 320 320 320 320 320 320 321 321 322 322 322 321 324 323 323 322 336 355 357 356 362 355 361 365 338 339 338 335 339 341 339 333 330 337 331 337 333 337 330 327 324 317 318 320 324 324 324 321 318 321 323 323 322 322 321 326 326 325 326 328 330 332 335 339 344 346 346 347 347
317 317 316 316 317 317 317 317 317 318 318 319 319 319 319 320 320 320 320 320 320 320 320 320 320 321 321 321 322 321 322 323 326 320 325 354 359 357 356 361 359 364 346 333 337 338 336 339 338 335 333 329 332 328 334 333 332 329 324 319 320 323 324 326 326 325 326 325 321 321 323 323 322 323 328 324 323 325 326 325 330 334 336 340 343 345 345 346
316 316 316 316 316 316 316 317 317 317 318 318 318 319 319 319 319 319 319 319 320 320 320 320 320 321 321 321 322 322 324 326 317 323 333 355 358 363 352 358 360 363 341 333 336 338 339 341 340 337 332 326 329 331 326 333 330 330 324 319 321 325 322 324 327 326 327 327 324 322 323 320 322 323 323 324 321 322 327 328 330 333 337 339 341 343 345 346
316 316 315 316 316 316 316 316 317 317 318 318 318 318 319 319 319 318 318 319 319 319 319 320 320 320 321 321 320 324 324 313 316 326 332 346 356 356 356 357 360 344 336 334 334 336 337 335 335 333 329 324 324 327 327 330 329 329 324 326 326 325 323 323 326 327 327 328 326 323 320 319 326 322 324 323 320 318 326 330 334 337 338 339 341 343 345 345
316 316 315 315 316 316 316 316 317 317 317 317 317 318 318 318 318 318 318 318 319 319 319 320 320 320 321 321 321 323 319 303 318 324 354 354 355 358 355 359 364 342 336 335 332 334 334 333 331 326 325 323 321 319 326 327 331 320 325 326 328 327 323 326 327 326 326 325 325 321 324 322 322 320 326 324 323 324 331 332 335 338 341 340 344 344 343 344
315 315 315 315 315 316 316 316 316 316 317 317 317 318 318 317 317 317 317 317 318 318 319 320 320 321 321 320 324 323 315 315 320 330 356 357 357 356 359 359 363 341 336 333 334 333 332 329 327 325 325 323 321 321 324 324 328 324 321 325 326 328 325 326 325 326 323 326 325 328 328 321 321 317 325 324 326 327 331 333 337 339 342 341 341 342 342 342
314 314 315 315 315 315 316 316 316 316 316 316 317 317 317 317 317 317 317 317 318 318 319 319 320 321 321 323 319 317 321 320 328 333 356 364 356 352 354 336 338 335 336 332 333 333 331 325 323 325 323 320 321 320 322 321 324 321 319 326 326 328 328 328 326 326 326 326 328 327 322 322 322 321 323 323 325 328 329 334 336 339 340 341 340 341 343 342
314 314 314 315 315 315 315 316 315 316 316 316 316 316 316 316 316 317 317 317 318 319 319 320 320 321 322 321 314 308 310 321 333 334 344 343 339 339 334 331 335 331 332 335 335 333 328 324 324 325 320 321 324 321 322 318 315 322 322 324 325 326 328 327 326 326 325 327 327 324 322 323 322 324 319 324 323 329 330 334 336 338 338 338 338 339 342 342
314 314 314 314 315 315 315 315 316 316 316 316 316 315 315 316 316 317 317 317 318 319 320 321 322 322 322 324 316 307 317 328 334 334 339 334 331 333 329 330 330 329 327 330 333 331 326 324 323 326 326 324 325 320 322 320 317 322 321 321 322 325 326 327 325 326 326 326 327 322 323 321 324 321 315 325 324 329 329 331 334 336 335 337 338 338 341 340
314 314 314 314 314 315 315 315 316 315 316 316 315 315 315 316 316 316 317 318 318 319 320 322 323 322 321 325 312 307 323 324 327 328 331 331 334 330 326 329 329 326 326 328 329 331 330 327 327 326 324 320 323 320 321 321 323 320 320 322 322 324 326 326 325 325 326 323 328 325 323 324 324 317 318 323 324 328 328 330 332 335 334 336 337 339 342 342
314 314 314 314 314 314 315 315 315 315 316 315 314 315 315 315 315 316 316 318 319 320 322 324 323 323 325 320 314 314 324 325 327 327 330 329 327 330 331 329 330 326 326 325 327 329 329 328 326 322 316 324 317 321 320 324 321 320 320 317 319 322 321 325 324 324 325 323 327 327 324 320 320 315 324 325 326 327 327 329 329 334 334 335 336 338 341 341
313 314 314 313 314 314 314 315 315 315 314 314 314 314 314 314 315 315 317 317 320 322 323 324 325 325 324 316 317 321 323 325 325 325 325 329 329 328 329 332 332 331 327 325 326 327 326 323 323 318 320 319 319 315 322 323 320 320 319 316 316 318 317 323 325 325 322 322 326 325 312 316 320 320 325 326 325 326 325 327 328 331 333 334 336 337 339 340
313 313 313 313 314 314 315 315 315 314 314 314 314 313 313 314 315 316 317 318 321 323 324 325 325 326 325 316 319 322 324 326 328 327 325 327 326 326 326 327 329 330 331 328 327 328 325 323 320 319 321 317 315 324 319 319 320 314 317 318 312 311 313 321 322 322 320 324 326 325 312 317 322 322 326 326 325 324 323 326 326 329 329 332 334 336 339 340
313 313 313 313 314 314 314 314 314 313 314 314 313 313 313 313 315 317 319 320 323 326 327 325 326 326 321 321 329 329 351 331 324 324 326 324 324 323 323 324 324 325 325 327 327 328 327 324 320 315 313 319 319 315 313 314 316 316 311 309 313 310 313 319 322 321 317 322 326 322 313 322 322 322 327 326 324 324 324 325 325 327 328 329 333 335 337 339
313 312 313 313 313 314 314 313 313 313 313 312 312 312 313 314 317 319 320 323 327 326 327 324 326 326 320 315 321 346 328 323 321 325 326 326 325 322 322 321 323 323 324 324 326 327 326 324 317 316 315 316 314 311 311 310 311 314 311 310 310 312 313 314 319 321 321 322 323 321 314 319 319 326 327 327 324 323 324 325 325 327 327 328 331 334 336 338
312 312 312 313 313 313 314 313 313 313 312 311 312 312 314 317 319 320 322 324 327 327 327 327 331 327 313 322 329 321 320 324 326 325 326 327 325 323 321 321 320 321 323 324 325 324 324 320 320 318 317 312 313 312 307 306 306 309 313 309 312 311 313 311 318 320 320 322 318 321 318 320 322 325 326 327 326 323 323 325 325 327 327 329 330 331 334 337
313 312 312 313 313 314 313 312 312 312 311 310 310 311 312 318 320 317 320 321 329 328 327 329 324 321 318 329 318 317 322 322 323 326 325 325 326 325 323 321 321 321 321 319 323 319 321 316 317 311 312 311 311 310 305 302 305 307 309 309 309 312 313 313 312 317 319 320 319 319 318 320 322 323 325 326 326 323 323 324 325 326 327 329 328 330 333 335
313 312 312 313 313 313 313 313 312 311 310 310 312 316 319 320 323 323 325 326 324 322 314 318 317 303 306 316 327 325 321 323 327 326 323 323 324 324 324 326 322 319 316 315 315 316 317 314 314 310 306 307 308 309 308 310 311 310 312 311 311 310 311 312 316 320 319 318 317 319 316 319 321 323 325 325 325 323 324 325 326 326 326 328 328 329 331 334
312 312 313 313 313 313 313 312 312 310 309 308 311 314 322 321 319 325 323 327 322 320 318 319 321 318 319 320 320 325 328 327 321 323 325 325 323 320 319 321 320 319 315 310 312 313 316 308 306 305 307 309 311 311 312 314 314 313 313 313 312 312 313 316 317 320 321 318 317 319 320 320 321 323 324 325 326 324 323 323 325 326 326 327 328 329 330 334
313 312 313 313 312 313 312 311 311 310 309 309 310 314 311 307 302 302 306 307 311 317 321 321 321 321 320 323 323 321 317 320 322 321 322 324 321 318 314 316 315 311 313 313 311 315 314 307 306 309 310 311 312 313 314 314 314 312 312 312 311 313 311 315 316 320 321 317 317 320 320 320 321 323 324 326 325 323 322 323 325 326 327 327 329 330 330 332
312 313 312 312 312 312 311 310 311 309 308 312 313 315 314 311 312 312 308 301 308 311 311 312 316 314 319 320 323 323 320 316 317 320 323 322 318 312 314 313 312 309 313 313 312 310 306 305 309 311 313 313 313 313 314 313 311 312 311 311 311 311 315 317 317 319 320 318 316 319 318 319 323 324 326 326 325 327 327 326 325 327 327 329 329 331 331 332
312 312 312 312 312 311 310 310 309 308 311 315 315 311 311 315 317 316 312 306 303 310 309 309 308 310 311 317 319 321 313 312 312 318 319 320 315 313 314 311 310 312 313 312 306 306 303 306 310 313 313 311 311 312 312 312 312 311 311 309 308 313 311 309 315 318 320 318 315 318 316 319 322 324 325 328 327 328 330 329 328 328 329 329 329 331 332 331
312 312 312 312 311 310 311 309 307 314 320 317 310 309 316 317 316 315 308 301 301 307 310 312 311 310 310 310 317 316 313 313 313 313 323 318 312 316 313 313 310 311 310 311 309 306 306 310 313 313 312 310 309 310 310 309 309 312 312 311 311 311 312 313 313 316 319 320 320 318 317 317 320 319 321 326 328 327 328 329 330 330 330 331 331 332 334 333
312 312 313 312 310 310 308 307 312 310 311 309 312 317 317 317 317 315 306 305 307 307 317 313 314 314 314 320 319 312 314 314 314 317 319 318 314 314 312 316 313 308 310 312 311 308 308 313 314 311 310 310 309 307 309 310 308 310 312 313 313 313 313 315 315 314 313 313 317 316 309 311 318 319 320 323 325 325 328 329 329 333 331 332 331 332 334 334
313 313 313 312 312 309 308 307 311 308 309 309 314 316 317 315 316 315 307 301 298 307 315 308 316 310 320 313 315 314 315 308 315 317 318 318 321 316 315 312 314 308 310 311 310 310 309 313 313 310 309 309 308 308 310 311 308 307 310 315 314 314 314 314 313 313 308 307 315 319 308 307 317 317 320 322 323 325 329 329 329 332 334 331 332 333 332 332
313 313 312 311 311 309 304 303 308 310 308 310 314 316 315 315 321 313 305 300 299 311 307 313 312 312 318 315 314 315 302 306 317 317 316 319 315 320 311 310 312 314 314 314 310 307 312 311 311 311 310 308 307 305 309 311 308 307 315 316 315 313 312 312 313 312 311 317 317 318 315 308 309 315 322 323 322 323 327 328 330 330 333 330 331 331 335 334
313 313 311 311 310 309 307 308 308 308 309 312 316 315 316 317 317 313 303 294 296 314 307 308 313 318 315 316 316 311 311 317 308 312 317 318 318 315 312 310 310 310 312 311 302 310 312 310 310 309 309 307 305 308 311 312 309 310 315 316 314 314 313 313 313 312 313 312 308 313 317 310 309 316 323 323 319 322 324 325 327 331 332 333 333 333 334 335
312 312 311 311 310 308 311 309 309 308 313 316 316 317 315 317 311 304 299 292 309 311 322 309 322 315 314 316 313 313 312 315 310 314 317 318 318 316 308 311 313 312 314 312 306 310 313 313 312 311 309 306 309 311 311 311 308 313 316 317 316 316 315 314 311 311 311 309 305 310 314 307 308 315 316 321 320 319 321 324 326 331 333 333 332 334 335 336
312 312 311 310 309 310 311 310 308 315 317 317 318 317 315 310 305 298 294 289 309 303 313 314 312 310 314 310 310 312 309 312 316 316 315 313 315 317 316 318 312 312 311 313 311 312 314 318 318 313 309 311 312 312 312 312 313 316 315 314 313 313 313 313 312 312 309 303 307 311 313 311 304 313 315 315 317 321 322 324 326 330 331 333 335 333 333 335
312 310 310 309 307 308 308 304 309 314 315 319 318 314 310 305 297 295 291 300 310 309 315 311 310 315 311 309 306 311 310 312 313 315 311 315 312 314 314 311 314 310 309 310 309 311 312 314 313 314 316 314 314 311 313 313 314 313 311 310 310 309 311 311 310 311 303 300 309 312 312 313 303 309 316 321 324 324 323 322 325 326 330 333 334 331 332 334
309 308 309 309 309 312 305 303 310 311 315 317 314 308 303 293 298 291 294 312 299 307 308 308 312 312 311 312 310 309 307 310 314 313 310 310 309 307 308 305 307 301 301 304 304 311 308 309 314 315 318 314 311 308 309 311 311 310 310 309 304 302 305 300 305 301 301 301 308 311 312 309 308 313 318 321 322 324 325 325 325 326 329 332 332 332 335 335
308 307 307 309 312 312 312 312 313 316 319 317 310 306 298 292 288 295 297 305 302 311 309 313 310 311 311 310 308 311 312 307 313 313 313 312 309 309 311 309 311 306 299 305 305 305 306 311 311 313 314 315 312 305 304 304 308 308 306 306 303 299 298 295 300 303 303 306 311 310 314 307 312 315 320 319 323 325 326 327 327 328 329 332 332 336 335 338
307 307 308 313 314 315 316 318 318 318 316 316 307 300 296 290 290 305 300 302 305 312 312 310 311 311 310 306 309 311 306 311 311 311 312 309 308 306 308 310 311 308 307 306 302 304 300 301 306 310 307 314 311 309 308 307 307 307 311 308 305 304 300 296 299 297 299 303 308 312 307 306 306 310 321 322 324 325 326 327 329 330 331 334 335 338 338 339
306 308 313 315 316 317 319 319 318 318 316 311 302 296 289 289 296 297 300 303 306 308 307 312 309 308 307 309 311 312 311 307 312 310 309 308 306 306 306 307 310 311 309 302 306 306 304 304 310 313 313 313 309 312 313 310 308 310 310 311 306 305 310 301 304 303 303 304 303 307 307 312 310 322 323 325 324 324 325 326 327 330 330 331 330 331 334 335
307 312 313 311 312 315 317 318 320 318 314 307 298 292 290 295 294 301 301 309 308 306 307 309 308 305 305 307 310 310 313 309 310 309 308 308 309 307 310 310 308 310 307 303 307 302 305 303 312 313 314 313 311 313 312 312 300 307 308 303 306 313 310 306 307 308 308 305 302 311 309 312 317 319 320 322 322 323 324 324 324 326 327 330 329 333 334 334
307 310 308 312 314 316 316 320 320 317 312 305 296 291 296 298 302 303 307 305 307 309 307 301 303 303 303 303 306 308 309 311 310 309 305 310 306 310 309 310 313 310 311 310 306 310 304 305 312 312 309 313 315 314 313 312 312 308 303 306 312 314 313 308 300 304 302 299 302 307 305 307 308 305 319 319 319 321 323 323 323 325 327 326 329 334 334 333
306 308 310 312 316 319 318 320 319 315 309 302 295 298 301 297 304 303 305 305 305 306 303 302 304 307 303 304 304 307 310 306 306 308 305 309 305 314 310 310 313 312 312 314 308 308 309 302 309 313 313 313 315 313 310 312 313 307 307 314 305 301 300 307 305 297 297 297 300 305 307 307 309 309 314 316 317 319 322 324 323 323 325 325 331 331 334 335
308 308 305 312 319 319 319 322 317 311 305 298 296 295 300 301 304 304 306 305 306 303 300 302 302 306 306 304 306 309 309 304 307 306 303 307 303 312 311 312 311 313 314 313 308 309 310 302 304 313 312 312 312 310 302 305 311 312 312 308 313 308 305 302 304 305 304 299 299 301 304 303 312 312 315 316 319 321 321 322 322 323 324 325 326 335 335 335
306 302 300 311 318 320 320 316 308 305 300 295 298 298 304 301 304 305 306 305 302 301 301 301 304 302 305 306 307 305 308 308 306 306 306 308 306 313 311 314 312 313 314 314 310 311 306 311 300 308 314 312 304 307 304 306 304 305 305 304 306 307 311 309 308 305 302 301 300 300 299 305 312 317 317 319 322 322 322 323 325 324 324 324 326 328 335 337
305 300 301 311 313 318 316 311 303 297 296 299 301 300 303 302 305 306 307 307 305 307 302 302 302 301 303 304 305 308 306 307 308 306 307 307 307 304 312 313 314 312 314 312 310 310 306 307 302 306 307 306 307 311 310 309 309 306 304 303 305 303 303 300 299 308 307 303 298 299 299 309 315 318 321 322 324 321 322 324 324 324 324 326 327 329 337 336
300 295 300 312 314 314 308 300 301 303 298 295 296 300 299 307 302 304 306 308 307 304 308 304 303 302 302 303 306 306 306 305 306 306 308 306 309 308 312 315 315 315 312 308 308 312 311 309 306 303 305 307 310 313 314 313 312 310 308 305 307 306 308 304 296 301 306 306 308 306 302 306 319 322 325 321 322 321 323 324 324 324 325 325 327 326 334 338
299 296 308 310 312 308 302 297 300 299 298 300 303 302 303 302 302 304 304 305 303 306 304 303 303 302 303 302 303 305 307 304 305 304 307 309 309 311 314 315 316 314 313 311 312 312 324 306 303 305 309 311 313 314 315 314 312 309 309 309 307 303 306 305 305 307 304 306 303 303 301 305 316 330 328 322 331 323 324 324 326 323 325 325 326 327 335 338
299 299 301 309 310 307 299 292 292 294 296 299 300 299 303 302 302 301 301 303 303 304 303 303 304 305 302 305 303 301 305 299 306 306 305 308 307 314 314 313 315 312 312 311 309 313 306 308 305 302 302 304 307 310 309 312 311 307 306 308 308 308 308 308 309 312 303 304 305 302 298 304 315 329 330 325 322 320 321 322 324 325 326 325 327 338 338 345
299 301 301 304 309 307 295 297 295 295 296 296 297 297 299 301 303 303 302 302 306 305 304 303 304 305 304 305 303 304 304 302 301 306 307 308 308 315 314 314 315 313 315 317 328 316 308 307 305 298 296 294 295 296 298 302 305 307 309 308 309 307 306 304 301 305 299 309 308 303 303 310 317 323 323 323 321 328 325 323 323 326 335 327 331 342 338 345
295 290 297 300 303 303 302 303 300 297 295 296 295 297 300 297 302 304 305 303 305 304 305 305 306 305 303 302 301 300 300 304 301 301 304 305 308 312 314 314 314 314 322 332 326 316 309 310 309 306 303 301 304 308 310 310 307 304 306 306 307 308 308 307 305 302 299 305 306 307 310 313 313 316 319 317 320 321 321 324 323 326 326 344 345 346 346 350
298 292 294 292 299 299 297 300 298 299 295 298 292 297 296 297 299 300 304 298 304 303 303 303 304 301 301 301 299 299 301 301 303 302 302 303 307 310 314 313 313 317 334 323 321 315 314 306 308 311 308 308 309 309 310 310 306 307 306 305 307 307 307 306 302 300 309 306 299 309 321 311 311 315 318 320 319 323 325 326 324 327 339 329 330 344 350 346
291 295 298 300 292 290 292 294 298 297 298 297 294 297 295 295 297 295 298 301 302 303 299 300 301 303 302 302 301 297 299 300 300 299 303 304 304 307 310 313 311 322 324 315 319 314 310 305 308 308 307 307 308 310 311 310 309 308 307 307 306 307 307 305 306 306 310 303 300 311 319 315 314 313 316 321 324 324 320 323 324 328 328 336 353 339 341 344
299 298 298 301 293 295 296 296 297 296 295 296 295 295 293 294 293 295 295 296 298 298 300 294 297 300 299 300 298 297 300 297 295 301 302 302 303 304 304 308 311 314 313 311 313 317 311 306 309 309 307 307 308 308 310 310 309 308 308 308 308 307 306 306 306 307 307 310 311 310 318 314 313 314 315 318 326 323 324 328 328 327 323 336 335 339 330 329
294 294 294 298 297 295 296 297 297 296 293 297 292 294 293 292 292 294 297 295 292 294 299 296 297 297 298 299 299 297 299 298 297 294 300 301 302 303 303 305 307 311 312 310 310 314 308 306 311 309 307 307 309 309 309 309 309 307 308 309 308 307 307 307 306 307 308 307 307 307 311 312 314 321 319 321 322 324 326 324 322 326 326 324 326 325 328 330
300 303 302 294 291 293 296 295 295 293 293 295 293 293 294 293 291 294 293 297 294 293 296 294 296 297 299 298 298 298 301 300 299 300 301 301 297 303 303 304 309 307 308 307 309 310 309 306 310 308 304 304 308 309 308 309 308 308 307 308 307 307 306 306 305 307 306 307 308 307 307 308 314 317 317 320 321 322 321 324 326 329 325 327 327 326 327 329
306 306 303 299 290 295 293 295 295 294 291 295 294 295 293 294 295 295 291 296 297 299 299 297 297 297 296 297 296 298 301 301 301 303 304 306 307 307 309 309 310 305 306 305 309 307 308 306 305 305 302 303 307 308 308 308 307 303 304 307 309 309 309 310 311 310 309 308 305 304 305 313 317 319 316 317 317 320 320 321 322 324 335 327 327 329 330 330
Wind_Speed
22 22 22 21 22 22 22 21 23 22 22 23 22 23 23 23 22 21 21 21 21 21 20 20 20 20 20 20 20 18 18 12 16 11 13 17 16 7 5 7 13 12 11 8 11 13 14 14 15 13 11 9 8 9 8 7 7 6 3 3 8 9 8 3 2 0 4 9 9 9 9 9 8 7 9 8 12 12 12 8 10 13 12 15 19 20 19 19
22 22 22 22 22 22 22 22 22 23 22 22 22 22 22 23 23 23 22 21 21 21 21 20 20 20 20 20 19 18 16 11 14 19 21 8 9 10 9 9 11 12 12 11 13 15 14 15 14 13 11 10 9 9 12 6 9 5 3 5 8 9 4 4 4 2 3 9 8 6 9 9 10 9 8 9 12 11 12 12 11 13 18 19 19 20 19 19
22 23 23 22 22 22 22 23 22 22 21 21 21 22 22 22 23 24 23 23 22 22 22 21 20 20 21 19 17 17 13 12 13 20 19 16 13 11 10 11 11 13 15 13 13 15 14 14 13 13 11 11 9 9 12 1 8 8 3 6 8 11 4 2 1 7 1 4 10 7 4 11 9 7 9 11 12 11 11 10 15 15 19 19 19 19 19 19
23 23 23 23 23 24 24 22 24 22 21 21 21 21 21 22 22 23 24 24 23 23 22 21 20 21 20 20 16 15 11 13 14 3 12 13 12 10 10 11 13 13 14 15 13 14 14 14 15 15 13 12 10 12 9 10 11 4 4 6 10 14 10 4 2 6 5 4 5 9 6 12 9 9 9 13 11 9 12 11 15 18 18 20 20 20 19 19
23 23 23 23 24 23 23 24 23 22 22 21 21 21 21 21 22 23 23 23 23 23 22 22 21 20 19 17 16 11 9 13 4 8 10 11 9 10 9 12 12 13 16 14 14 14 15 15 15 15 12 11 12 12 11 14 10 10 9 8 11 9 13 6 3 3 7 8 5 8 9 9 7 7 5 11 9 7 10 13 16 18 20 20 21 20 18 19
23 23 23 24 23 22 22 22 22 22 23 22 22 22 22 22 22 23 23 23 23 23 22 22 21 21 20 16 14 9 5 4 4 5 8 10 9 10 11 11 12 12 13 14 14 14 15 15 15 13 11 12 11 11 11 11 15 10 12 10 11 7 12 7 7 4 5 8 8 6 6 9 9 7 6 9 6 9 14 14 17 18 20 19 19 19 19 19
23 23 24 24 22 23 22 22 22 22 22 23 23 22 23 22 22 22 23 23 23 23 23 21 21 21 18 19 12 7 10 15 17 4 10 9 10 10 10 10 10 11 13 13 15 14 15 15 15 13 12 12 14 15 12 16 16 11 8 11 12 7 16 3 6 8 7 10 9 4 9 8 8 10 5 8 4 10 15 15 17 19 20 19 20 19 19 19
24 24 25 24 23 23 24 23 23 23 23 23 23 24 23 23 22 22 22 23 23 24 22 21 20 18 16 11 7 8 12 14 4 15 12 8 10 11 11 9 12 11 13 16 15 16 14 16 15 13 13 12 10 13 14 18 19 13 6 18 17 16 13 1 3 8 6 4 3 8 7 9 8 10 8 7 10 7 17 16 17 19 20 19 19 18 18 19
23 24 24 24 24 24 24 25 25 25 25 24 25 24 24 23 22 22 22 22 23 23 22 20 18 15 11 6 7 11 12 15 14 14 16 14 13 11 12 8 12 13 12 14 16 15 14 13 16 14 11 14 15 16 15 9 7 15 12 10 9 11 7 9 8 7 7 6 7 8 10 11 9 16 9 8 10 10 14 17 17 18 19 19 20 19 17 17
24 23 22 23 24 25 25 25 25 26 26 26 25 26 25 24 22 22 23 22 22 23 21 19 15 11 9 6 8 10 10 3 14 17 17 13 12 9 11 9 13 12 12 14 14 16 15 11 15 13 16 15 13 14 15 16 10 8 9 12 9 9 7 7 7 9 9 8 9 9 7 10 6 7 8 9 13 8 15 17 16 18 17 18 17 17 17 18
25 23 23 24 25 25 25 26 26 27 27 27 28 27 26 24 23 23 22 21 21 21 20 16 12 10 8 9 8 11 4 8 5 3 10 4 11 9 9 10 12 11 13 13 15 15 14 15 11 9 11 10 11 16 15 13 8 12 10 4 7 10 9 10 11 10 7 8 12 9 9 9 9 6 8 11 14 11 16 16 17 17 16 16 17 17 14 14
25 23 24 25 26 25 26 25 26 26 27 28 28 27 26 27 25 23 22 20 21 19 15 11 7 5 9 10 12 15 8 13 9 5 8 9 9 10 10 11 12 11 12 12 14 14 14 13 13 12 9 7 13 14 17 14 13 15 12 11 12 12 12 12 12 10 10 8 13 11 10 9 10 9 13 14 14 12 14 17 16 17 16 16 16 15 14 14
24 24 25 26 26 27 26 27 26 27 27 27 27 27 28 28 26 23 21 20 15 13 11 9 6 5 8 10 16 20 20 15 13 15 12 9 9 9 10 10 11 12 12 12 12 12 13 13 13 14 15 13 10 11 10 20 16 16 15 13 11 15 12 13 11 13 12 8 14 12 8 8 11 7 9 16 14 14 14 15 15 15 14 14 15 14 14 14
25 26 26 27 27 28 28 27 28 27 27 27 26 26 26 28 27 24 20 18 17 15 10 8 6 7 8 12 10 11 16 14 16 14 13 10 11 12 12 11 10 10 10 12 12 10 12 11 14 15 12 15 12 12 17 14 12 10 12 9 11 9 9 12 12 12 14 13 14 13 7 6 10 12 8 16 15 14 14 15 15 16 15 14 15 15 14 15
25 27 27 28 30 29 29 29 29 28 28 28 26 27 27 26 26 22 18 15 13 12 8 6 7 5 8 11 14 24 25 17 15 13 12 14 12 12 13 13 14 13 12 12 10 10 10 11 13 13 11 13 15 16 14 11 11 11 11 14 11 10 6 9 14 13 13 14 13 12 7 7 12 13 10 17 14 15 15 15 15 15 15 16 14 15 15 14
25 27 28 28 28 29 29 29 30 30 29 29 29 28 30 25 23 19 16 12 10 7 7 6 8 10 10 14 6 3 12 15 16 15 13 14 13 14 13 14 13 13 13 12 9 8 10 11 13 11 12 12 15 12 11 10 11 12 11 10 10 11 8 9 12 14 14 13 13 13 6 5 7 10 13 16 15 15 15 16 15 16 17 16 14 14 14 14
25 28 28 29 28 28 30 29 29 31 31 31 31 32 29 24 18 12 11 11 7 7 7 5 6 11 6 2 4 8 9 12 11 10 12 12 14 14 13 13 13 14 13 13 11 10 11 12 8 10 12 12 12 12 12 11 10 9 10 12 12 12 11 8 11 12 14 11 10 13 10 7 6 15 15 17 15 15 14 16 16 15 14 15 14 15 15 14
26 26 28 28 29 27 29 29 29 30 31 32 32 31 25 21 12 5 8 7 7 7 9 10 10 7 16 18 14 13 11 10 10 9 10 10 11 12 13 11 10 13 13 12 12 13 12 11 10 11 10 14 14 14 14 13 11 10 11 12 12 14 15 11 8 11 12 14 10 12 12 9 7 14 16 17 16 15 14 14 16 15 16 15 14 14 16 15
26 28 27 29 28 27 27 28 29 30 29 30 30 28 23 8 3 6 5 7 6 4 5 8 9 10 2 4 16 13 11 10 9 9 11 11 10 9 8 7 10 13 12 12 11 15 11 11 12 12 15 15 16 16 16 16 15 16 14 12 12 13 12 11 13 10 12 14 12 12 11 10 10 9 16 15 15 15 14 15 14 15 15 15 15 14 14 15
26 26 27 29 29 28 28 28 29 30 27 24 19 16 7 3 3 4 6 9 12 12 14 5 16 14 18 21 8 5 6 15 10 12 11 10 8 12 11 10 12 13 13 12 12 17 11 14 15 16 15 16 19 20 19 19 18 18 15 14 14 11 9 9 13 12 15 12 13 12 12 11 8 10 15 15 15 15 14 15 14 14 14 16 15 15 15 15
24 27 27 28 30 28 28 30 30 30 26 17 15 11 8 11 10 7 14 14 16 19 19 22 19 18 17 14 13 8 9 11 11 13 12 7 10 9 12 12 13 13 13 14 13 12 14 14 17 18 19 19 18 20 22 19 19 21 16 16 14 13 10 11 13 17 16 13 12 13 14 13 12 12 14 13 15 17 16 15 15 16 16 15 16 16 16 14
24 24 25 28 31 31 30 31 31 30 28 12 7 7 10 8 6 8 11 14 12 15 19 24 23 23 19 21 19 17 12 11 17 14 13 11 11 11 11 14 15 14 13 14 13 12 15 18 17 20 18 18 19 20 21 21 20 20 17 14 12 10 11 10 13 16 15 14 9 15 14 13 16 16 12 14 13 12 15 15 14 14 16 13 16 16 15 15
27 24 25 27 30 33 32 32 32 33 12 6 7 11 8 9 9 8 9 14 22 19 24 24 23 25 21 18 17 17 19 17 14 18 15 13 13 15 11 14 14 14 14 17 15 14 15 16 19 18 18 19 21 20 20 22 20 16 16 14 13 12 11 9 13 14 16 11 10 13 14 10 14 15 15 14 15 14 14 16 15 14 13 15 17 16 15 16
27 26 24 25 28 32 33 32 34 19 5 10 14 13 8 7 8 10 12 8 14 18 18 21 23 21 21 19 15 20 20 15 14 14 17 14 14 14 14 15 16 15 15 18 20 17 15 12 16 19 20 21 21 22 21 18 17 19 19 15 14 15 13 13 7 12 15 13 11 10 10 9 10 13 15 15 18 17 16 15 15 14 14 13 15 17 16 16
26 25 24 24 26 31 34 35 13 10 17 16 9 6 6 7 8 10 10 9 10 12 13 19 13 17 17 15 15 17 17 15 17 15 13 16 16 13 14 11 12 15 17 18 19 19 19 16 14 19 20 21 21 20 22 18 16 16 21 21 17 16 18 15 14 10 8 9 10 10 8 10 11 16 14 15 16 17 15 15 15 13 14 13 14 15 17 16
25 25 24 23 24 26 35 16 6 17 19 11 8 8 10 8 8 8 8 5 11 9 7 11 13 13 12 17 15 15 15 16 18 15 15 15 15 15 9 12 10 15 18 18 16 12 15 16 17 17 20 21 22 20 21 21 16 17 16 21 22 20 17 15 17 14 11 11 11 12 11 8 9 13 15 14 15 13 11 15 16 13 11 14 12 12 14 17
25 26 24 22 22 21 16 6 14 17 13 4 13 11 11 10 6 11 6 7 10 7 13 6 15 6 10 16 17 14 13 14 13 17 19 17 18 14 15 12 12 11 11 10 9 13 13 19 19 18 19 20 19 19 20 22 18 16 16 20 21 22 21 18 18 12 9 10 11 15 13 10 10 12 14 16 15 13 16 15 16 16 15 15 15 16 13 15
26 26 24 22 23 17 10 13 16 13 12 13 14 13 12 9 9 8 5 6 5 6 9 6 3 5 7 14 17 15 13 3 15 19 21 18 18 17 17 17 15 15 15 12 16 10 16 17 20 20 19 17 19 19 19 23 18 14 16 20 20 20 20 20 17 13 13 12 11 11 15 12 11 9 11 14 16 12 11 15 18 16 18 16 16 16 15 14
26 26 26 23 23 29 19 9 10 15 13 13 13 13 10 11 10 5 5 8 5 5 6 10 1 7 6 13 16 17 17 10 10 16 20 19 21 13 15 20 17 16 17 17 14 12 13 16 18 21 16 16 16 19 20 20 19 18 18 18 18 18 19 19 15 15 10 9 11 11 12 11 11 10 10 12 16 18 18 18 17 16 16 16 16 15 16 14
27 27 26 23 21 12 7 9 14 19 17 16 13 11 13 10 7 6 7 10 3 6 10 6 10 12 13 15 14 18 20 12 10 12 18 16 20 18 13 13 17 16 16 18 19 16 15 14 16 14 16 14 15 18 20 21 22 16 19 18 17 18 16 16 15 12 9 11 10 15 16 13 12 11 12 13 13 14 16 16 17 16 17 16 15 16 15 13
25 27 24 22 12 8 12 12 14 7 9 7 10 14 10 6 6 7 13 6 4 5 10 6 12 13 17 18 13 18 19 14 14 13 15 16 17 18 13 13 14 14 14 14 16 19 20 17 15 13 15 13 17 18 20 20 19 21 14 15 13 14 15 11 10 12 13 14 13 15 15 17 16 11 13 13 13 16 16 17 20 22 21 17 14 16 16 14
24 27 30 19 17 11 10 10 12 15 12 11 12 9 6 8 8 13 9 5 10 8 13 9 14 13 19 18 15 17 17 18 13 15 15 15 15 16 17 14 13 14 15 14 14 16 19 19 13 15 14 21 18 15 13 18 19 19 18 15 15 11 10 13 10 16 16 14 12 18 20 17 18 13 11 15 18 19 18 15 16 19 18 18 18 18 14 15
24 26 32 22 17 10 16 18 15 11 12 11 9 7 8 8 14 15 13 8 4 4 9 12 12 17 16 18 17 17 19 17 16 16 17 17 16 17 20 19 16 15 12 14 14 14 14 17 21 15 14 17 19 15 14 16 18 19 18 16 14 14 14 11 13 9 10 13 17 16 18 17 11 14 19 19 14 15 18 15 15 16 16 14 16 15 17 16
25 28 18 16 14 15 13 13 12 12 10 7 7 6 10 12 16 6 17 16 13 4 6 3 8 16 17 15 16 15 16 18 18 16 19 14 18 15 17 23 21 18 15 12 15 14 12 15 19 19 13 15 19 17 16 12 13 14 15 17 14 12 11 13 10 14 14 12 12 18 16 9 16 8 15 21 19 16 16 18 16 14 15 14 18 17 17 16
31 27 19 16 14 15 18 15 11 10 8 7 7 11 14 19 9 11 12 12 13 20 21 10 12 12 16 17 16 19 16 14 21 19 18 17 16 16 16 18 25 20 15 14 11 11 20 14 13 21 15 16 20 19 16 16 14 16 17 16 17 17 10 13 11 13 12 12 14 13 13 9 13 6 9 11 19 21 19 16 16 13 14 15 16 16 16 16
25 12 15 12 12 11 11 12 12 10 8 8 10 13 20 14 9 10 10 9 13 13 14 19 16 14 14 14 16 20 22 17 21 19 17 20 18 18 19 15 20 25 16 15 9 12 12 14 14 19 24 19 19 17 18 16 14 13 17 20 19 15 16 13 15 15 14 13 14 9 11 12 9 12 13 14 15 18 19 18 17 15 15 13 14 17 18 17
15 17 13 14 14 13 12 6 8 8 9 10 12 18 14 12 18 14 8 13 12 14 15 14 13 14 13 14 14 19 18 20 17 17 14 19 18 22 20 19 19 25 26 14 13 13 10 11 15 16 24 23 17 18 19 21 17 11 16 17 16 18 17 12 13 10 13 14 11 13 15 12 11 10 11 15 16 16 16 18 17 15 17 17 15 20 18 17
16 15 18 21 20 15 13 7 8 8 9 11 17 21 9 16 13 18 18 21 18 17 15 14 11 16 15 16 14 17 18 17 16 17 15 17 13 20 21 17 22 21 26 24 14 12 13 11 12 20 18 20 20 18 18 21 25 22 15 12 16 15 20 13 9 15 16 15 10 13 17 15 15 11 11 16 18 16 14 16 18 15 17 19 13 21 21 20
14 13 12 10 8 5 7 3 7 8 11 13 16 15 14 18 18 19 16 18 17 18 16 16 14 11 15 14 15 17 18 17 16 17 15 13 16 17 23 16 18 24 24 26 18 12 11 12 10 14 18 17 18 16 18 18 22 26 21 17 16 15 15 16 13 11 12 13 12 15 17 13 12 11 14 16 17 15 15 14 16 19 19 15 13 18 19 19
10 9 10 11 4 3 5 5 7 10 11 17 14 15 10 14 15 20 24 24 17 14 14 17 17 16 16 17 17 15 16 21 19 17 18 10 16 14 20 22 16 21 24 25 19 17 12 9 12 9 18 16 17 16 19 16 17 17 19 19 15 12 9 11 13 16 12 10 12 11 14 12 11 11 13 13 16 18 16 13 12 14 15 15 16 15 20 17
10 8 10 16 15 2 4 8 11 12 14 13 18 18 17 14 14 16 20 24 19 17 19 17 14 14 14 15 18 18 14 16 17 16 15 17 16 12 17 17 18 18 21 23 22 17 12 12 12 11 14 17 16 17 19 18 16 16 17 18 17 15 15 17 17 15 16 12 8 11 14 9 11 11 7 6 9 17 16 17 15 17 18 18 14 14 21 16
11 9 9 10 13 5 10 12 10 11 12 15 14 13 14 14 20 21 21 18 21 17 16 19 22 20 17 19 17 14 14 17 15 17 17 16 19 17 11 20 18 21 16 17 18 18 13 8 11 14 14 14 18 18 22 21 19 19 17 18 20 17 14 13 12 13 14 16 17 15 14 13 6 7 6 10 10 14 17 19 16 17 19 20 20 12 17 18
9 12 14 25 21 16 12 14 14 14 16 14 16 21 21 20 17 16 18 20 20 17 17 18 19 18 19 18 17 18 18 14 18 18 18 21 19 21 17 18 21 21 20 14 20 16 15 11 12 12 12 15 16 19 19 22 21 19 19 19 19 21 21 16 12 12 13 15 17 14 15 9 11 6 6 10 7 10 12 14 13 15 17 20 19 15 18 19
11 13 14 16 19 15 14 17 14 14 14 17 21 22 19 18 19 20 20 19 15 15 18 15 18 23 19 18 17 18 15 14 17 22 17 17 16 22 23 25 23 17 18 11 13 16 14 12 13 11 9 11 15 15 17 18 18 15 15 17 20 22 25 22 16 10 16 18 17 15 15 12 10 5 5 9 10 16 15 13 11 12 10 14 14 7 15 9
11 12 14 14 14 12 15 12 16 14 16 18 17 20 20 19 17 24 21 19 19 20 17 19 18 14 17 18 21 19 20 20 13 16 19 18 18 18 23 27 22 17 16 14 14 14 16 11 14 14 16 16 16 16 17 17 17 14 17 18 21 24 26 21 20 13 10 10 20 16 14 9 9 11 10 10 12 6 6 6 12 13 6 10 6 12 15 15
7 10 8 11 9 11 14 16 16 16 16 18 17 14 17 15 15 15 18 24 25 22 21 20 17 17 17 16 19 22 23 21 20 12 13 13 15 13 17 23 22 22 7 6 4 14 11 13 13 15 14 13 13 9 9 14 14 17 20 23 21 23 23 22 15 16 16 8 11 14 14 5 11 14 14 16 14 10 10 11 12 9 10 3 2 10 6 7
7 9 8 10 11 10 10 9 14 15 12 10 8 8 17 17 16 18 14 11 13 22 21 21 18 20 17 17 17 18 21 24 22 21 21 19 16 16 18 22 19 21 14 5 7 7 8 14 19 18 21 17 13 16 17 17 19 19 21 22 23 22 22 23 19 19 13 11 12 7 6 12 12 12 11 13 16 12 9 9 12 10 3 8 7 9 13 15
7 7 11 9 11 10 15 11 10 12 8 8 11 12 16 18 17 14 16 13 18 16 10 10 16 18 20 22 15 15 16 20 18 21 21 21 18 19 19 21 21 11 5 12 10 10 12 16 19 21 22 24 24 17 20 19 17 18 21 21 23 23 23 24 21 23 17 16 16 9 10 12 13 19 14 8 9 11 11 12 11 8 6 5 5 7 5 13
10 9 12 12 11 11 14 18 20 17 16 15 10 12 16 16 18 14 13 15 15 13 12 12 16 16 19 21 15 9 14 11 11 15 17 16 21 17 15 18 23 19 19 18 15 9 9 15 15 19 22 26 26 27 22 21 19 18 19 20 20 21 24 25 23 21 22 13 14 17 10 12 16 18 20 17 7 10 9 8 8 11 10 6 6 12 21 17
8 8 8 8 9 12 17 16 15 15 15 12 10 11 11 13 17 16 14 11 12 15 12 12 16 18 17 17 16 11 13 14 13 16 18 19 17 15 16 16 12 19 17 18 15 10 10 10 13 16 16 19 26 24 26 25 21 23 20 16 18 20 22 23 23 22 20 22 26 25 15 11 13 10 14 16 15 10 7 7 13 11 13 16 14 13 10 13
8 9 6 9 13 10 12 14 13 13 12 12 9 12 13 13 15 15 16 13 15 15 12 11 13 16 16 16 16 16 15 18 19 20 22 20 15 17 14 11 19 14 22 17 15 14 15 11 11 13 13 13 15 21 24 25 24 22 21 22 24 24 21 20 19 18 18 15 15 21 15 12 11 14 15 14 14 15 15 12 11 8 15 15 15 14 14 14
7 5 8 6 9 12 13 14 16 14 13 10 11 12 12 14 14 13 13 10 10 13 14 13 11 10 15 16 15 17 19 20 22 23 21 20 18 19 18 18 20 18 10 20 17 17 13 12 12 12 14 13 14 15 19 21 20 20 23 24 21 23 22 21 18 19 18 18 17 13 13 10 10 10 15 16 19 14 14 15 15 15 8 14 17 14 12 14
Wind_Direction
355 353 351 350 349 347 345 344 343 341 339 339 337 335 334 332 330 330 330 327 325 324 322 320 320 320 319 318 320 322 320 311 299 274 235 241 257 114 118 93 149 171 170 188 208 177 186 203 204 207 221 214 215 226 188 207 230 179 253 247 261 251 284 129 355 357 105 131 133 162 125 121 121 134 122 136 132 122 128 120 112 123 126 116 122 133 138 137
353 352 351 349 348 346 344 342 342 340 338 337 335 333 331 330 328 327 326 325 323 320 320 319 319 318 317 317 318 321 320 294 281 275 269 264 174 143 157 168 163 163 172 202 207 190 187 197 202 209 225 225 208 230 165 179 217 185 204 232 255 265 67 269 70 105 200 108 152 120 137 152 115 128 161 151 124 139 146 124 119 108 111 119 129 139 142 142
352 351 350 348 347 344 343 341 340 338 335 334 332 330 329 328 327 325 322 322 321 319 317 319 317 317 318 317 316 316 310 296 277 269 267 156 147 153 158 171 175 173 186 204 211 205 200 190 206 212 218 239 207 233 168 149 264 191 239 249 244 237 255 148 130 101 127 150 120 160 144 125 130 141 186 147 141 156 146 145 132 126 127 134 139 145 148 148
351 349 348 347 346 344 342 340 339 336 332 332 330 328 327 326 323 322 320 319 317 317 316 314 317 317 317 314 317 314 291 282 281 96 101 134 138 147 171 173 183 186 208 225 220 218 210 206 203 210 220 228 225 227 195 177 226 144 203 245 284 288 304 141 261 127 125 170 126 132 187 115 183 123 208 123 152 167 146 161 144 142 144 142 152 149 150 151
350 349 347 346 344 342 341 339 336 332 330 328 327 325 324 322 321 318 317 316 315 314 314 312 315 317 315 310 310 296 302 285 105 105 113 116 135 160 181 182 183 199 212 223 235 231 215 220 213 208 227 224 233 226 207 178 194 171 213 239 271 285 297 101 230 131 174 137 188 107 206 124 136 141 205 150 171 170 150 154 138 146 146 150 150 153 154 155
349 348 346 345 342 341 339 336 332 330 327 326 325 324 323 320 320 317 315 313 313 312 311 311 313 315 313 312 304 281 280 314 33 138 137 148 153 167 178 179 184 212 212 227 231 225 216 214 223 216 209 243 239 228 196 229 175 218 198 212 238 268 271 265 151 195 132 152 170 189 127 116 191 134 181 151 237 148 137 147 141 145 146 150 151 156 160 160
348 347 345 343 340 338 335 332 330 328 325 324 324 322 321 318 316 315 315 312 310 309 309 310 312 315 313 303 270 251 251 264 272 123 128 158 163 163 165 171 174 208 214 219 226 229 207 217 218 219 221 225 241 257 221 210 192 219 195 203 214 192 244 155 270 126 250 149 184 152 117 175 184 147 173 149 330 113 132 140 140 140 146 151 153 165 163 161
347 346 344 341 338 335 333 331 329 326 324 323 322 321 318 317 315 314 312 310 308 306 306 309 312 312 316 306 269 238 243 259 236 140 150 154 173 161 158 172 179 191 208 218 215 222 210 217 215 219 230 227 211 232 267 249 198 205 220 181 217 226 231 307 183 204 174 160 114 152 166 144 213 141 152 207 129 130 122 137 138 142 148 151 158 163 167 162
346 345 343 339 336 334 332 330 328 327 325 322 320 317 317 315 313 311 309 307 304 303 304 307 309 306 298 286 278 286 270 268 138 156 154 168 169 161 164 179 186 187 207 218 223 224 221 212 227 221 224 226 252 240 213 251 246 208 193 193 231 204 205 204 223 234 153 166 202 145 203 127 227 117 190 145 138 129 131 130 142 147 153 156 160 165 169 171
344 343 341 338 334 332 329 328 327 326 323 321 319 317 314 313 311 308 307 305 303 302 301 304 302 298 276 245 265 264 271 354 149 154 165 176 152 170 196 205 178 199 206 214 223 230 222 221 223 218 245 260 230 231 270 237 231 264 232 199 220 246 222 201 237 224 186 181 174 187 177 145 171 159 150 162 138 142 143 141 147 153 159 159 164 165 167 174
343 341 339 337 334 330 327 326 326 324 323 320 318 314 313 311 310 307 304 302 300 300 299 297 293 280 256 232 258 260 261 237 252 197 165 185 167 194 214 211 181 205 211 213 225 227 234 237 226 245 240 241 250 266 243 259 279 252 272 244 221 248 217 227 207 238 217 193 167 190 185 156 176 201 154 164 141 165 139 148 150 154 167 164 165 165 168 179
342 339 337 335 332 329 326 325 324 323 321 318 315 314 312 309 308 306 303 300 298 293 291 293 288 258 268 264 246 241 266 294 307 245 172 199 224 214 218 220 188 212 210 222 218 227 234 238 243 239 241 196 255 270 272 291 283 278 253 210 210 213 234 216 227 219 203 200 169 178 185 186 165 233 152 151 144 165 151 150 161 158 167 166 165 164 171 180
339 338 336 333 330 329 327 325 323 322 319 314 313 311 308 307 305 303 301 299 294 292 285 285 280 243 270 263 241 245 254 266 272 268 251 194 212 221 227 234 213 205 219 230 230 221 227 235 236 245 242 265 243 231 234 213 219 255 267 277 229 199 213 207 208 228 191 195 175 158 212 195 182 198 170 146 154 168 161 158 160 161 164 169 169 165 173 182
339 336 335 333 331 329 327 325 323 320 316 314 311 308 304 303 301 299 298 290 289 281 276 261 259 253 246 254 275 264 257 241 242 246 255 229 213 217 215 224 237 236 224 236 241 242 227 224 240 241 255 244 246 259 262 290 310 260 242 258 291 272 226 188 210 202 221 156 170 154 220 203 177 174 196 148 158 175 167 162 166 162 168 169 177 167 173 182
338 335 335 335 332 329 326 325 323 319 317 315 311 306 304 298 295 295 292 287 266 261 258 234 233 241 225 258 255 251 250 266 267 250 248 238 217 229 222 214 219 229 234 228 236 238 249 232 223 236 235 237 264 269 275 264 224 247 240 216 215 251 249 215 188 202 223 140 176 164 212 197 193 167 206 150 163 182 168 170 172 167 170 168 176 170 174 183
337 335 333 334 331 327 325 325 323 320 319 316 313 305 303 296 290 291 288 278 290 295 208 224 204 225 289 285 276 100 212 224 232 238 238 242 211 229 221 216 218 218 226 224 226 232 227 242 227 224 232 234 236 239 254 258 250 220 239 264 228 205 225 230 203 205 199 143 195 180 203 174 240 180 200 155 169 186 175 175 177 172 173 169 176 176 178 183
337 335 333 331 330 325 324 324 322 320 319 318 314 308 301 290 278 270 267 275 261 207 208 240 183 197 268 26 353 249 210 214 237 213 223 212 218 217 217 211 209 213 211 224 214 221 220 228 229 230 232 237 219 228 236 238 248 241 201 245 240 223 203 223 173 208 175 170 191 183 225 229 205 186 193 162 173 186 184 179 179 177 176 169 176 180 176 184
337 334 331 328 326 326 322 322 321 319 319 317 314 303 296 284 286 276 231 230 213 201 228 248 278 267 250 249 265 244 234 218 205 214 193 191 230 215 226 197 208 211 198 216 207 217 205 221 209 225 212 218 226 216 222 221 225 222 220 204 240 250 233 199 176 176 189 173 211 185 224 209 249 176 181 163 178 184 189 187 179 181 179 173 180 185 178 185
336 335 329 326 324 324 321 320 320 319 319 317 303 292 272 277 230 223 209 167 180 188 220 192 197 188 230 101 219 245 231 207 173 199 178 198 189 232 230 220 202 200 203 207 191 213 193 222 206 223 218 207 213 218 217 224 227 235 224 210 225 242 221 209 176 190 192 177 203 203 202 193 230 202 166 169 183 183 190 190 183 185 184 176 183 187 185 185
335 334 330 325 324 323 321 320 318 316 323 325 328 329 297 236 215 176 205 209 234 251 282 286 194 230 275 288 277 185 318 137 189 197 188 200 195 189 225 210 203 210 210 206 190 202 197 209 210 212 216 214 211 218 225 222 238 246 249 241 222 224 248 264 182 185 180 203 199 208 204 180 214 194 169 180 183 185 190 191 189 186 184 184 185 187 194 185
334 334 330 326 323 324 323 321 317 315 319 312 304 301 341 3 342 327 335 291 264 251 258 267 252 242 248 267 264 204 201 176 214 185 214 170 220 204 205 205 210 208 212 212 217 178 218 217 219 216 215 219 215 214 224 231 230 243 249 246 244 229 224 214 235 181 175 212 188 206 205 192 173 223 184 185 189 192 191 191 194 189 189 186 186 188 194 192
334 333 330 329 324 323 323 321 317 312 315 285 272 287 313 34 355 325 322 300 277 268 259 253 256 257 252 249 258 273 262 233 192 214 199 220 209 220 176 205 207 216 200 213 218 194 209 223 217 218 216 218 226 218 219 228 230 233 243 253 253 256 248 222 232 173 177 193 207 190 218 200 185 209 210 185 196 202 198 193 195 197 190 187 185 189 188 194
333 332 331 327 325 322 323 320 315 312 308 285 261 279 333 351 343 334 309 281 280 256 249 248 248 248 245 239 236 236 251 239 226 194 211 202 217 213 200 197 213 217 208 206 216 208 211 221 223 219 219 217 220 227 216 221 232 237 234 243 251 252 232 217 237 192 176 186 203 194 210 219 205 194 201 206 200 208 209 199 198 199 196 188 188 188 190 194
331 330 328 326 325 323 321 319 311 297 258 279 289 278 349 334 332 341 316 285 294 286 236 234 227 233 233 226 211 225 225 230 235 221 188 197 219 192 231 203 216 218 219 209 218 225 222 218 213 221 221 217 219 219 221 215 222 232 242 235 240 254 249 255 230 180 166 181 229 198 216 220 220 214 191 205 212 203 200 205 201 192 198 202 195 191 191 195
325 327 326 325 328 323 321 316 306 352 331 309 294 32 354 337 346 347 315 288 242 257 226 238 225 224 227 222 215 211 217 230 227 226 206 197 206 204 217 219 221 220 224 220 216 229 235 222 208 210 220 218 219 220 219 219 221 224 230 241 238 236 251 235 243 175 160 199 204 216 215 225 209 226 216 194 202 202 193 202 201 192 188 193 206 196 187 196
323 322 326 325 326 331 316 302 41 340 320 296 4 347 348 332 353 328 305 279 280 279 183 216 164 218 199 202 204 214 210 227 215 216 224 200 208 219 194 226 207 225 219 226 225 228 233 227 219 211 212 218 219 223 218 217 225 221 218 226 243 247 245 252 248 218 200 206 185 203 231 222 224 229 216 215 213 199 211 201 203 198 189 189 199 208 195 193
320 321 322 325 323 339 338 330 337 320 310 17 5 339 328 326 350 312 286 241 271 211 201 109 170 110 193 185 193 180 212 220 203 209 216 202 200 202 233 212 207 237 234 217 231 226 214 228 221 216 212 217 217 220 217 216 221 226 219 218 229 238 247 250 256 226 215 198 221 215 213 240 222 223 219 214 215 202 206 203 211 203 196 201 197 202 206 198
321 317 320 323 320 323 275 291 304 302 293 316 337 326 318 328 312 276 253 317 270 128 157 156 302 128 239 167 181 192 203 89 191 200 209 195 201 187 225 224 218 213 223 225 230 220 220 215 227 215 218 213 221 217 215 219 223 227 221 229 220 228 241 247 245 234 204 197 217 215 220 227 233 220 218 211 215 195 229 230 212 214 199 198 204 204 199 211
318 316 315 321 320 303 279 237 269 278 287 316 317 316 318 309 290 297 269 254 351 306 74 173 98 183 223 174 189 206 217 233 246 170 192 204 191 209 201 229 235 225 216 229 239 227 222 229 214 232 216 220 220 221 219 215 227 222 233 227 238 223 221 245 252 250 245 232 229 206 211 243 236 225 220 227 223 207 209 218 228 207 205 195 201 208 207 195
316 313 314 318 321 300 314 284 251 259 274 281 296 310 310 292 269 232 215 254 148 248 173 100 185 178 194 181 200 201 217 210 245 150 184 200 175 211 227 215 234 236 229 216 239 247 246 201 230 225 227 221 219 223 225 221 224 230 225 236 228 240 232 217 233 252 265 246 226 217 207 217 247 227 224 221 222 224 214 204 208 216 215 196 194 206 210 204
313 311 309 315 300 309 311 279 261 266 317 322 319 307 287 264 240 223 233 225 209 250 106 147 184 167 187 194 199 199 215 207 206 172 181 190 183 198 216 212 223 241 239 233 220 232 245 246 204 223 229 229 231 221 215 227 221 221 226 221 237 233 239 240 211 217 241 243 235 234 233 213 240 228 232 222 226 228 230 214 204 204 204 193 198 208 207 203
311 309 306 307 278 275 254 260 293 333 312 318 313 295 263 239 220 224 226 110 260 209 206 177 204 185 194 198 212 190 200 209 204 177 191 185 190 191 201 216 186 209 224 222 226 213 229 234 237 205 214 231 220 232 212 218 220 217 221 223 218 227 227 226 219 221 224 241 230 229 231 230 225 239 237 222 217 223 227 221 211 209 200 190 199 200 195 196
312 308 303 289 278 242 231 245 276 283 292 285 282 270 238 227 234 213 236 231 243 289 175 202 207 201 197 202 214 200 198 211 198 190 201 188 208 198 203 216 195 207 211 207 228 215 220 230 233 226 203 215 231 207 211 215 212 212 212 216 217 216 221 235 226 240 251 229 231 230 226 242 244 229 222 241 236 228 222 220 218 207 205 191 180 185 196 194
312 308 302 282 275 264 261 247 245 255 277 288 251 244 241 233 235 187 222 222 252 254 326 251 229 204 205 211 209 207 195 210 201 200 193 200 203 206 202 209 220 198 229 211 215 215 221 206 220 223 211 198 218 223 210 227 202 218 219 219 223 221 220 221 223 225 227 244 234 233 244 230 226 205 208 217 229 232 228 219 217 205 199 186 186 194 195 190
313 299 279 276 265 252 240 237 244 244 248 251 232 229 221 231 242 228 226 231 225 267 273 264 257 245 209 216 217 214 220 194 211 205 200 208 203 214 200 202 209 224 197 233 210 224 226 236 206 214 232 193 214 211 222 215 221 208 219 225 226 223 219 239 217 228 235 232 234 233 241 221 231 213 228 222 212 220 229 224 217 200 199 207 198 185 186 189
307 314 307 280 273 272 249 206 208 220 230 231 232 224 229 224 228 220 256 250 248 246 248 261 252 239 241 216 211 231 208 244 186 217 204 210 215 212 214 202 204 208 213 211 209 221 216 231 204 195 219 218 206 204 210 218 221 199 207 216 222 219 226 230 253 256 230 231 247 239 233 226 232 200 205 221 235 222 212 221 212 201 204 223 187 169 182 189
320 313 308 295 280 269 268 178 180 205 222 239 233 237 236 244 246 269 249 246 263 264 253 249 232 233 230 233 217 208 223 212 221 199 220 199 218 219 209 217 203 202 218 218 216 236 241 219 211 210 201 216 206 205 211 210 236 227 214 213 215 230 233 232 234 226 238 239 229 236 246 247 232 234 186 217 216 231 211 217 214 193 187 215 186 173 179 190
310 301 291 282 266 250 247 187 189 204 230 234 237 246 258 254 241 249 272 284 289 280 274 252 252 243 231 238 226 216 210 222 207 219 222 202 232 202 218 216 207 209 204 216 241 208 229 258 210 208 215 197 199 203 212 216 216 235 236 178 212 194 219 210 235 232 223 220 244 228 232 241 233 227 194 211 214 212 212 206 215 196 194 205 184 169 178 189
293 288 286 319 62 196 173 139 218 228 229 236 240 249 240 256 273 276 273 281 285 281 269 266 269 235 255 234 235 237 217 215 220 220 228 203 226 189 215 211 211 207 204 206 221 238 215 238 247 204 207 184 189 197 216 206 210 226 241 244 205 227 214 215 214 248 246 238 225 230 234 240 230 243 216 201 205 191 202 204 215 225 212 203 195 171 175 183
297 309 284 279 241 92 96 234 248 235 237 240 244 248 263 259 247 253 264 265 271 272 262 263 255 266 248 254 238 234 229 228 218 226 222 208 233 195 212 201 223 201 204 202 215 216 240 219 243 217 193 187 198 194 213 207 197 205 224 232 241 223 225 238 221 225 229 234 239 241 231 227 239 236 235 205 188 185 190 206 197 224 242 216 207 186 174 173
321 287 279 275 278 92 238 240 239 238 242 248 254 262 262 258 261 257 253 255 264 257 266 271 270 255 257 257 246 242 252 233 226 226 213 224 225 218 210 213 203 223 195 203 209 205 229 217 223 239 204 201 213 194 209 214 205 209 214 228 227 222 196 217 229 219 222 223 227 236 243 243 224 237 247 261 186 177 188 219 207 197 219 247 236 196 165 168
296 277 267 331 341 331 257 258 245 244 251 248 251 248 250 253 264 270 273 268 259 263 252 258 261 271 266 256 260 253 246 251 243 234 220 220 213 237 196 210 208 213 210 202 202 204 217 219 228 221 234 210 211 208 195 212 216 213 211 221 222 232 227 207 224 219 216 219 228 238 246 228 233 242 230 251 247 205 196 207 216 197 204 222 246 236 157 162
295 281 306 306 303 308 292 269 268 262 255 260 263 258 264 269 271 262 254 250 260 259 258 253 252 252 250 261 261 260 259 254 247 244 242 218 224 218 235 215 216 203 221 202 202 205 199 228 216 230 234 252 219 213 202 197 213 220 216 218 214 221 225 234 221 221 243 224 221 232 238 237 220 228 224 234 255 250 200 198 202 208 203 209 217 230 161 167
295 298 296 280 282 280 265 255 254 248 254 256 254 260 260 262 255 250 250 256 255 246 252 260 247 244 256 250 255 262 265 266 252 257 252 262 229 217 213 231 211 220 198 207 211 176 215 197 236 203 214 226 254 209 208 199 202 219 223 213 219 221 227 234 244 204 220 232 235 219 234 217 210 228 189 242 248 232 217 191 216 231 213 209 206 172 145 151
297 281 262 266 270 252 248 246 252 262 258 262 266 256 245 239 239 252 261 258 250 253 259 245 251 252 244 246 256 255 253 258 272 259 266 257 270 211 207 223 203 229 206 219 220 180 215 188 199 222 203 202 211 213 198 199 204 205 223 228 218 223 220 223 231 235 245 194 224 245 241 224 211 193 216 216 225 230 213 222 224 241 206 198 166 133 152 143
294 300 303 292 276 252 243 245 260 265 266 263 271 288 316 310 310 309 287 259 252 260 247 252 259 267 269 255 239 245 255 253 253 265 269 268 264 244 227 223 197 199 208 28 293 205 209 214 202 217 230 215 218 240 210 200 206 213 204 219 228 222 227 225 225 234 235 243 229 222 247 261 217 206 196 211 236 209 172 189 251 239 204 192 10 131 129 146
288 271 290 303 319 296 288 270 251 251 272 339 316 321 292 300 313 300 314 323 273 245 253 254 247 238 235 259 267 257 245 249 250 257 257 263 263 265 227 244 246 189 100 191 18 255 220 215 216 205 223 243 226 220 239 205 212 214 218 210 220 230 222 226 223 225 226 241 245 247 206 244 253 238 203 199 212 236 194 177 212 243 250 174 186 137 144 169
265 268 283 312 299 296 301 293 287 287 298 302 293 300 285 293 293 296 319 307 322 334 329 339 335 321 275 250 274 274 260 249 245 249 252 248 265 264 248 223 234 189 152 233 226 233 235 235 211 216 213 225 242 237 223 236 218 217 218 222 211 217 232 227 227 231 219 227 242 231 214 231 251 250 244 235 214 220 217 197 203 226 191 185 117 140 164 166
271 285 287 308 288 298 282 292 294 290 286 273 264 266 281 281 280 282 301 313 313 319 333 329 312 318 333 339 344 330 360 328 271 263 248 252 246 254 254 245 242 202 183 224 230 232 238 229 238 228 217 206 220 237 245 235 229 224 228 220 219 215 217 233 239 234 232 236 238 243 226 223 232 245 255 251 233 233 229 207 188 194 218 240 210 178 210 205
273 298 301 315 301 299 296 285 279 279 270 273 273 254 253 264 272 285 282 297 310 310 336 309 306 322 323 320 326 320 359 346 335 318 329 332 317 263 249 261 250 222 220 208 220 223 246 223 229 242 255 231 207 211 232 244 244 235 215 234 239 217 218 219 230 239 237 235 238 239 236 240 240 243 247 256 255 267 275 239 214 189 192 226 243 253 233 201
273 283 297 303 301 288 298 293 283 280 286 273 259 269 252 240 256 265 271 274 282 288 287 291 303 328 317 315 319 324 340 329 324 316 314 312 297 305 308 279 259 224 211 228 213 223 215 241 217 234 244 235 237 217 216 228 243 252 258 217 215 246 239 219 217 217 234 240 236 239 241 234 228 232 246 249 248 242 248 256 246 215 196 197 230 233 228 246
299 298 282 246 266 278 286 291 292 286 264 268 282 285 286 295 283 264 265 255 274 285 281 287 307 315 298 304 317 317 323 316 313 315 307 295 284 282 280 285 276 253 232 214 215 218 218 220 223 222 227 239 232 232 223 223 226 237 235 249 240 218 237 253 218 199 219 241 251 248 240 235 222 211 233 240 237 231 233 243 255 252 226 209 207 217 228 227